When you browse on this site, cookies collect data to enhance your experience and personalize the content and advertising you see.
Visit our Privacy Policy to learn more. By continuing to use the site, you agree to this use of cookies and data.

Hourly Weather Rokitno

Today, 2 July, Thursday

Time Temperature Precipitation Wind Pressure Humidity
00:00 +20°C° 0 mm 2 mps 733 mmHg 82%
01:00 +20°C° 0 mm 3 mps 733 mmHg 85%
02:00 +20°C° 0.4 mm 3 mps 733 mmHg 86%
03:00 +20°C° 0.4 mm 3 mps 732 mmHg 86%
04:00 +20°C° 0.4 mm 3 mps 732 mmHg 87%
05:00 +20°C° 0.5 mm 3 mps 733 mmHg 86%
06:00 +20°C° 0.5 mm 4 mps 733 mmHg 86%
07:00 +20°C° 0 mm 4 mps 733 mmHg 80%
08:00 +22°C° 0 mm 3 mps 733 mmHg 75%
09:00 +24°C° 0 mm 3 mps 733 mmHg 71%
10:00 +25°C° 0 mm 2 mps 733 mmHg 67%
11:00 +26°C° 0.1 mm 2 mps 734 mmHg 64%
12:00 +27°C° 0.1 mm 2 mps 734 mmHg 61%
13:00 +28°C° 0 mm 2 mps 734 mmHg 57%
14:00 +28°C° 1.2 mm 2 mps 734 mmHg 61%
15:00 +27°C° 1.2 mm 2 mps 734 mmHg 65%
16:00 +27°C° 1.2 mm 2 mps 733 mmHg 68%
17:00 +25°C° 0.9 mm 2 mps 733 mmHg 74%
18:00 +24°C° 0.9 mm 2 mps 734 mmHg 79%
19:00 +23°C° 0.9 mm 2 mps 734 mmHg 84%
20:00 +23°C° 0.1 mm 1 mps 734 mmHg 85%
21:00 +22°C° 0.1 mm 1 mps 734 mmHg 87%
22:00 +21°C° 0.1 mm 1 mps 734 mmHg 88%
23:00 +21°C° 0.1 mm 1 mps 734 mmHg 89%

Tomorrow, 3 July, Friday

Time Temperature Precipitation Wind Pressure Humidity
00:00 +20°C° 0.1 mm 1 mps 734 mmHg 91%
01:00 +18°C° 0.1 mm 0 mps 734 mmHg 92%
02:00 +18°C° 0.5 mm 0 mps 734 mmHg 92%
03:00 +19°C° 0.5 mm 1 mps 734 mmHg 93%
04:00 +19°C° 0.5 mm 1 mps 734 mmHg 93%
05:00 +20°C° 1.1 mm 1 mps 734 mmHg 90%
06:00 +21°C° 1.1 mm 1 mps 734 mmHg 87%
07:00 +23°C° 1.1 mm 1 mps 735 mmHg 83%
08:00 +23°C° 0.6 mm 2 mps 735 mmHg 81%
09:00 +23°C° 0.6 mm 2 mps 735 mmHg 79%
10:00 +22°C° 0.6 mm 3 mps 735 mmHg 77%
11:00 +22°C° 0.6 mm 3 mps 735 mmHg 80%
12:00 +21°C° 0.6 mm 3 mps 736 mmHg 83%
13:00 +20°C° 0.6 mm 3 mps 736 mmHg 85%
14:00 +20°C° 0.2 mm 3 mps 736 mmHg 85%
15:00 +20°C° 0.2 mm 3 mps 736 mmHg 84%
16:00 +21°C° 0.2 mm 2 mps 736 mmHg 84%
17:00 +20°C° 0.2 mm 2 mps 736 mmHg 85%
18:00 +20°C° 0.2 mm 2 mps 736 mmHg 86%
19:00 +19°C° 0.2 mm 2 mps 737 mmHg 88%
20:00 +19°C° 0 mm 2 mps 737 mmHg 88%
21:00 +18°C° 0 mm 2 mps 737 mmHg 89%
22:00 +17°C° 0 mm 2 mps 738 mmHg 90%
23:00 +16°C° 0 mm 2 mps 738 mmHg 90%

Day after tomorrow, 4 July, Saturday

Time Temperature Precipitation Wind Pressure Humidity
00:00 +16°C° 0 mm 2 mps 738 mmHg 91%
01:00 +15°C° 0 mm 2 mps 738 mmHg 91%
02:00 +15°C° 0 mm 2 mps 738 mmHg 90%
03:00 +14°C° 0 mm 2 mps 738 mmHg 89%
04:00 +14°C° 0 mm 1 mps 738 mmHg 89%
05:00 +16°C° 0 mm 1 mps 738 mmHg 84%
06:00 +18°C° 0 mm 1 mps 739 mmHg 79%
07:00 +20°C° 0 mm 1 mps 739 mmHg 74%
08:00 +21°C° 0 mm 1 mps 739 mmHg 68%
09:00 +21°C° 0 mm 2 mps 739 mmHg 62%
10:00 +23°C° 0 mm 2 mps 739 mmHg 56%
11:00 +24°C° 0 mm 2 mps 739 mmHg 54%
12:00 +25°C° 0 mm 2 mps 739 mmHg 52%
13:00 +25°C° 0 mm 2 mps 738 mmHg 50%
14:00 +25°C° 0 mm 2 mps 738 mmHg 51%
15:00 +25°C° 0 mm 2 mps 738 mmHg 51%
16:00 +26°C° 0 mm 2 mps 738 mmHg 51%
17:00 +24°C° 0 mm 1 mps 738 mmHg 57%
18:00 +23°C° 0 mm 1 mps 738 mmHg 63%
19:00 +22°C° 0 mm 1 mps 737 mmHg 69%
20:00 +21°C° 0 mm 1 mps 738 mmHg 71%
21:00 +20°C° 0 mm 1 mps 738 mmHg 72%
22:00 +18°C° 0 mm 1 mps 738 mmHg 74%
23:00 +18°C° 0 mm 1 mps 738 mmHg 75%

5 July, Sunday

Time Temperature Precipitation Wind Pressure Humidity
00:00 +18°C° 0 mm 1 mps 738 mmHg 77%
01:00 +16°C° 0 mm 1 mps 738 mmHg 78%
02:00 +16°C° 0 mm 1 mps 738 mmHg 79%
03:00 +16°C° 0 mm 1 mps 737 mmHg 81%
04:00 +16°C° 0 mm 2 mps 737 mmHg 82%
05:00 +17°C° 0 mm 2 mps 737 mmHg 79%
06:00 +19°C° 0 mm 2 mps 737 mmHg 77%
07:00 +20°C° 0 mm 2 mps 737 mmHg 74%
08:00 +22°C° 0 mm 3 mps 737 mmHg 69%
09:00 +24°C° 0 mm 3 mps 737 mmHg 63%
10:00 +26°C° 0 mm 3 mps 737 mmHg 58%
11:00 +26°C° 0 mm 3 mps 737 mmHg 56%
12:00 +27°C° 0 mm 3 mps 737 mmHg 54%
13:00 +27°C° 0 mm 3 mps 736 mmHg 53%
14:00 +27°C° 0.1 mm 3 mps 736 mmHg 56%
15:00 +27°C° 0.1 mm 3 mps 736 mmHg 59%
16:00 +27°C° 0.1 mm 4 mps 736 mmHg 62%
17:00 +26°C° 0.1 mm 3 mps 736 mmHg 68%
18:00 +24°C° 0.1 mm 2 mps 736 mmHg 75%
19:00 +23°C° 0.1 mm 2 mps 736 mmHg 81%
20:00 +21°C° 0 mm 2 mps 736 mmHg 83%
21:00 +20°C° 0 mm 2 mps 736 mmHg 86%
22:00 +19°C° 0 mm 2 mps 736 mmHg 88%
23:00 +19°C° 0 mm 2 mps 736 mmHg 88%

6 July, Monday

Time Temperature Precipitation Wind Pressure Humidity
00:00 +19°C° 0 mm 2 mps 735 mmHg 89%
01:00 +18°C° 0 mm 3 mps 735 mmHg 90%
02:00 +18°C° 0 mm 3 mps 735 mmHg 91%
03:00 +18°C° 0 mm 3 mps 735 mmHg 91%
04:00 +18°C° 0 mm 3 mps 735 mmHg 92%
05:00 +19°C° 0 mm 3 mps 735 mmHg 87%
06:00 +20°C° 0 mm 3 mps 735 mmHg 83%
07:00 +22°C° 0 mm 4 mps 735 mmHg 78%
08:00 +23°C° 0 mm 4 mps 735 mmHg 74%
09:00 +25°C° 0 mm 4 mps 735 mmHg 70%
10:00 +26°C° 0 mm 3 mps 735 mmHg 65%
11:00 +27°C° 0 mm 4 mps 734 mmHg 62%
12:00 +27°C° 0 mm 4 mps 734 mmHg 59%
13:00 +28°C° 0 mm 4 mps 734 mmHg 56%
14:00 +28°C° 0 mm 4 mps 734 mmHg 56%
15:00 +28°C° 0 mm 4 mps 733 mmHg 56%
16:00 +28°C° 0 mm 4 mps 733 mmHg 56%
17:00 +26°C° 0 mm 5 mps 733 mmHg 65%
18:00 +23°C° 0 mm 5 mps 734 mmHg 73%
19:00 +20°C° 0 mm 6 mps 734 mmHg 82%
20:00 +19°C° 0 mm 5 mps 734 mmHg 83%
21:00 +18°C° 0 mm 4 mps 734 mmHg 84%
22:00 +16°C° 0 mm 3 mps 735 mmHg 84%
23:00 +16°C° 0 mm 3 mps 735 mmHg 85%

7 July, Tuesday

Time Temperature Precipitation Wind Pressure Humidity
00:00 +14°C° 0 mm 3 mps 736 mmHg 86%
01:00 +14°C° 0 mm 3 mps 736 mmHg 86%
02:00 +14°C° 0 mm 3 mps 736 mmHg 79%
03:00 +14°C° 0 mm 4 mps 737 mmHg 72%
04:00 +14°C° 0 mm 4 mps 737 mmHg 65%
05:00 +14°C° 0 mm 4 mps 737 mmHg 69%
06:00 +14°C° 0 mm 4 mps 738 mmHg 73%
07:00 +14°C° 0 mm 4 mps 738 mmHg 76%
08:00 +15°C° 0.1 mm 4 mps 738 mmHg 74%
09:00 +15°C° 0.1 mm 5 mps 738 mmHg 73%
10:00 +16°C° 0.1 mm 5 mps 738 mmHg 71%
11:00 +16°C° 0.2 mm 5 mps 738 mmHg 69%
12:00 +17°C° 0.2 mm 5 mps 738 mmHg 67%
13:00 +17°C° 0.2 mm 5 mps 738 mmHg 66%
14:00 +17°C° 0.1 mm 5 mps 738 mmHg 66%
15:00 +17°C° 0.1 mm 5 mps 738 mmHg 66%
16:00 +17°C° 0.1 mm 5 mps 738 mmHg 66%
17:00 +16°C° 0 mm 5 mps 738 mmHg 69%
18:00 +15°C° 0 mm 4 mps 738 mmHg 72%
19:00 +14°C° 0 mm 4 mps 738 mmHg 75%
20:00 +13°C° 0 mm 3 mps 738 mmHg 77%
21:00 +11°C° 0 mm 3 mps 738 mmHg 78%
22:00 +10°C° 0 mm 2 mps 739 mmHg 80%
23:00 +10°C° 0 mm 2 mps 739 mmHg 80%
Show more